Regional Weather Roundup
Issued by NWS

Home | Current Version | Previous Version | Text Only | Print | Product List | Glossary On
Versions: 1 2 3 4 5 6 7 8 9 10 11 12 13 14 15 16 17 18 19 20 21 22 23 24 25 26 27 28 29 30 31 32 33 34 35 36 37 38 39 40 41 42 43 44 45 46 47 48 49
000
ASUS43 KDMX 302307
RWRIA

WEATHER ROUNDUP FOR IOWA
NATIONAL WEATHER SERVICE DES MOINES IA
600 PM CDT TUE SEP 30 2014

NOTE: "FAIR" INDICATES FEW OR NO CLOUDS BELOW 12,000 FEET WITH NO
SIGNIFICANT WEATHER AND/OR OBSTRUCTIONS TO VISIBILITY.

* - THESE STATIONS ARE NOT NWS STATIONS...THUS NOT UNDER NWS
QUALITY CONTROL.  THEY ALSO DO NOT REPORT WEATHER SUCH
AS PRECIPITATION OR FOG.

IAZ001>003-012>014-020>022-031>034-043>046-010000-
   NORTHWEST IOWA

CITY           SKY/WX    TMP DP  RH WIND       PRES   REMARKS
CARROLL *      LGT RAIN  63  61  94 E5        29.85R
CHEROKEE *     CLOUDY    63  63 100 E10       29.81S
DENISON *      MOSUNNY   64  64 100 E9        29.78F
LE MARS *      CLOUDY    68  63  83 S16G24    29.77R
ORANGE CITY *  PTSUNNY   68  63  83 SE10G17   29.77F
SHELDON *      PTSUNNY   63  61  94 SE10G17   29.79R
SIOUX CITY     PTSUNNY   68  63  84 S15G22    29.76S
SPENCER        CLOUDY    61  59  93 SE7       29.83F
STORM LAKE *   LGT RAIN  61  61 100 E9        29.84R
$$

IAZ055>058-069>071-079>083-090>094-010000-
   SOUTHWEST IOWA

CITY           SKY/WX    TMP DP  RH WIND       PRES   REMARKS
ATLANTIC *     DRIZZLE   64  64 100 NW7       29.81F
AUDUBON *      RAIN      64  59  82 N8        29.85R
CLARINDA *     CLOUDY    66  66 100 N6        29.80F
COUNCIL BLFS * RAIN      64  64 100 W7        29.82R
CRESTON *      MOSUNNY   72  64  78 E13G20    29.81S
HARLAN  *      LGT RAIN  64  64 100 E5        29.85F
LAMONI         PTSUNNY   74  65  73 E10       29.82S
RED OAK *      LGT RAIN  66  66 100 E7        29.80F
SHENANDOAH *   CLOUDY    66  66 100 N7        29.78F FOG
$$

IAZ047>049-059>061-072>074-084-010000-
   CENTRAL IOWA

CITY           SKY/WX    TMP DP  RH WIND       PRES   REMARKS
AMES           MOCLDY    66  57  72 E8        29.85S
ANKENY *       PTCLDY    70  59  68 SE12      29.84S
CHARITON *     CLEAR     70  61  73 E12       29.85S
DES MOINES     CLOUDY    70  58  65 E10       29.83S
GRINNELL*      PTCLDY    66  55  68 E12       29.89S
KNOXVILLE *    CLEAR     68  59  73 SE8       29.85R
MARSHALLTOWN   PTCLDY    63  55  75 SE12      29.89R
PELLA *        PTCLDY    70  57  64 E7        29.87F
PERRY *        PTSUNNY   66  59  77 E9        29.83R
$$

IAZ004>006-015-016-023>025-035-036-010000-
   NORTH CENTRAL IOWA

CITY           SKY/WX    TMP DP  RH WIND       PRES   REMARKS
ALGONA *       CLOUDY    64  55  72 SE8       29.87S
CLARION *      CLEAR     66  55  68 SE8G15    29.87R
ESTHERVILLE    RAIN      60  57  89 S8        29.88R FOG
FORT DODGE *   CLOUDY    64  55  72 E8        29.87R
MASON CITY     MOCLDY    62  52  69 SE12      29.90S
FOREST CITY *  MOCLDY    61  54  77 SE8G17    29.88S
IOWA FALLS *   MOCLDY    64  54  68 E10       29.89S
$$

IAZ007>011-017>019-026>030-037>042-050>054-066-010000-
   NORTHEAST IOWA

CITY           SKY/WX    TMP DP  RH WIND       PRES   REMARKS
CEDAR RAPIDS   CLEAR     63  54  72 E12       29.91F
CHARLES CITY * CLEAR     59  48  67 SE13      29.93R
CLINTON *      CLEAR     61  46  59 E12       29.99R
DECORAH *      CLEAR     55  46  71 E8        29.94F
MONTICELLO *   CLEAR     61  48  63 E6G13     29.95F
OELWEIN *      CLEAR     59  46  63 E12       29.94S
WATERLOO       PTCLDY    63  51  65 SE13      29.91R
$$

IAZ064-065-067-068-078-010000-
   EAST CENTRAL IOWA

CITY           SKY/WX    TMP DP  RH WIND       PRES   REMARKS
IOWA CITY      CLEAR     66  53  63 E12       29.93F
MT. PLEASANT * CLEAR     70  54  56 E9        29.91S
MUSCATINE *    CLEAR     66  52  59 NE13      29.93S
$$

IAZ062-063-075>077-085>089-095>099-010000-
   SOUTHEAST IOWA

CITY           SKY/WX    TMP DP  RH WIND       PRES   REMARKS
BURLINGTON     CLEAR     70  57  63 E7        29.91F
FAIRFIELD *    CLEAR     66  55  68 E10       29.90S
FORT MADISON * CLEAR     73  57  56 E7        29.91S
KEOKUK *       CLEAR     70  61  73 E8        29.89S
OSKALOOSA *      N/A     70  57  64 E13       29.88S
CENTERVILLE *  CLEAR     68  63  83 E10       29.87F
OTTUMWA        CLEAR     68  57  68 E15       29.87R
WASHINGTON *   CLEAR     68  55  64 E10       29.91S
$$

ABBREVIATIONS USED IN REMARKS
   TC - TEMPERATURES IN CELSIUS
  WCI - WIND CHILL INDEX
   HX - HEAT INDEX
  VSB - VISIBILITY
$$



USA.gov is the U.S. government's official web portal to all federal, state and local government web resources and services.